TimeCDT,TemperatureF,Dew PointF,Humidity,Sea Level PressureIn,VisibilityMPH,Wind Direction,Wind SpeedMPH,Gust SpeedMPH,PrecipitationIn,Events,Conditions,WindDirDegrees,DateUTC
12:15 AM,69.4,61.7,76,30.12,10.0,SE,12.7,-,N/A,,Clear,140,2013-08-18 05:15:00
12:35 AM,69.4,61.7,76,30.12,10.0,SSE,13.8,-,N/A,,Clear,150,2013-08-18 05:35:00
12:55 AM,68.9,61.7,78,30.13,10.0,SE,10.4,-,N/A,,Clear,130,2013-08-18 05:55:00
1:15 AM,67.6,61.7,81,30.13,10.0,SSE,9.2,-,N/A,,Clear,150,2013-08-18 06:15:00
1:35 AM,67.3,61.7,82,30.13,10.0,SE,9.2,-,N/A,,Clear,140,2013-08-18 06:35:00
1:55 AM,66.7,61.9,84,30.12,10.0,SE,10.4,-,N/A,,Clear,140,2013-08-18 06:55:00
2:15 AM,66.6,61.9,85,30.13,10.0,SSE,10.4,-,N/A,,Clear,150,2013-08-18 07:15:00
2:35 AM,66.2,61.9,86,30.12,10.0,SSE,9.2,-,N/A,,Clear,160,2013-08-18 07:35:00
2:55 AM,65.7,61.9,88,30.12,10.0,SSE,8.1,-,N/A,,Clear,160,2013-08-18 07:55:00
3:15 AM,65.3,61.9,89,30.12,10.0,South,8.1,-,N/A,,Clear,170,2013-08-18 08:15:00
3:35 AM,65.3,61.7,88,30.12,10.0,South,11.5,-,N/A,,Clear,180,2013-08-18 08:35:00
3:55 AM,65.7,61.5,86,30.12,10.0,South,9.2,-,N/A,,Clear,180,2013-08-18 08:55:00
4:15 AM,65.1,61.0,86,30.12,10.0,South,9.2,-,N/A,,Clear,180,2013-08-18 09:15:00
4:35 AM,64.8,60.8,87,30.12,10.0,South,9.2,-,N/A,,Clear,180,2013-08-18 09:35:00
4:55 AM,64.6,60.8,88,30.12,10.0,South,10.4,-,N/A,,Clear,180,2013-08-18 09:55:00
5:15 AM,64.8,60.8,87,30.12,10.0,South,10.4,-,N/A,,Clear,170,2013-08-18 10:15:00
5:35 AM,64.8,60.6,86,30.12,10.0,South,10.4,18.4,N/A,,Clear,180,2013-08-18 10:35:00
5:55 AM,64.0,60.4,88,30.11,10.0,South,10.4,-,N/A,,Clear,170,2013-08-18 10:55:00
6:15 AM,63.9,60.4,89,30.11,10.0,South,10.4,-,N/A,,Clear,170,2013-08-18 11:15:00
6:35 AM,63.5,60.3,89,30.11,10.0,SSE,9.2,-,N/A,,Clear,160,2013-08-18 11:35:00
6:55 AM,63.0,60.1,90,30.11,10.0,SSE,8.1,-,N/A,,Clear,160,2013-08-18 11:55:00
7:15 AM,63.0,60.1,90,30.11,10.0,SSE,9.2,-,N/A,,Clear,160,2013-08-18 12:15:00
7:35 AM,63.0,59.9,90,30.11,10.0,SSE,9.2,-,N/A,,Clear,160,2013-08-18 12:35:00
7:55 AM,63.9,60.1,87,30.12,10.0,South,11.5,-,N/A,,Clear,170,2013-08-18 12:55:00
8:15 AM,64.8,60.3,85,30.11,10.0,South,10.4,-,N/A,,Clear,170,2013-08-18 13:15:00
8:35 AM,66.2,60.4,82,30.11,10.0,South,12.7,-,N/A,,Clear,180,2013-08-18 13:35:00
8:55 AM,67.3,60.4,79,30.12,10.0,South,13.8,-,N/A,,Clear,170,2013-08-18 13:55:00
9:15 AM,68.9,60.1,73,30.12,10.0,South,16.1,-,N/A,,Clear,180,2013-08-18 14:15:00
9:35 AM,70.0,60.1,71,30.13,10.0,South,16.1,-,N/A,,Clear,190,2013-08-18 14:35:00
9:55 AM,70.9,59.9,68,30.14,10.0,South,12.7,-,N/A,,Clear,170,2013-08-18 14:55:00
10:15 AM,72.1,59.9,65,30.13,10.0,South,13.8,-,N/A,,Clear,190,2013-08-18 15:15:00
10:35 AM,73.4,59.9,63,30.13,10.0,South,13.8,-,N/A,,Clear,190,2013-08-18 15:35:00
10:55 AM,74.5,59.9,60,30.13,10.0,SSW,12.7,18.4,N/A,,Clear,200,2013-08-18 15:55:00
11:15 AM,75.7,59.9,58,30.12,10.0,SSW,12.7,19.6,N/A,,Clear,200,2013-08-18 16:15:00
11:35 AM,77.0,59.7,55,30.13,10.0,South,10.4,-,N/A,,Clear,190,2013-08-18 16:35:00
11:55 AM,77.9,59.9,54,30.12,10.0,South,12.7,-,N/A,,Clear,190,2013-08-18 16:55:00
12:15 PM,79.0,60.1,52,30.12,10.0,South,11.5,18.4,N/A,,Clear,190,2013-08-18 17:15:00
12:35 PM,80.1,60.8,52,30.11,10.0,South,11.5,17.3,N/A,,Clear,170,2013-08-18 17:35:00
12:55 PM,81.0,60.3,49,30.11,10.0,South,11.5,16.1,N/A,,Clear,180,2013-08-18 17:55:00
1:15 PM,82.0,60.3,47,30.11,10.0,SSE,10.4,17.3,N/A,,Clear,160,2013-08-18 18:15:00
1:35 PM,83.5,61.0,46,30.10,10.0,South,10.4,18.4,N/A,,Clear,170,2013-08-18 18:35:00
1:55 PM,84.2,61.0,45,30.09,10.0,South,10.4,18.4,N/A,,Clear,190,2013-08-18 18:55:00
2:15 PM,85.1,60.1,43,30.08,10.0,South,11.5,17.3,N/A,,Clear,170,2013-08-18 19:15:00
2:35 PM,86.2,59.5,40,30.08,10.0,South,13.8,17.3,N/A,,Clear,170,2013-08-18 19:35:00
2:55 PM,87.3,60.3,40,30.08,10.0,South,11.5,-,N/A,,Clear,180,2013-08-18 19:55:00
3:15 PM,87.6,59.4,38,30.07,10.0,South,11.5,-,N/A,,Clear,170,2013-08-18 20:15:00
3:35 PM,88.2,59.5,38,30.07,10.0,South,12.7,-,N/A,,Clear,180,2013-08-18 20:35:00
3:55 PM,88.7,58.6,36,30.06,10.0,South,11.5,19.6,N/A,,Clear,170,2013-08-18 20:55:00
4:15 PM,89.4,59.7,37,30.06,10.0,South,13.8,17.3,N/A,,Clear,170,2013-08-18 21:15:00
4:35 PM,89.1,59.5,37,30.05,10.0,SSE,11.5,-,N/A,,Clear,160,2013-08-18 21:35:00
4:55 PM,89.1,58.8,36,30.05,10.0,SSE,11.5,19.6,N/A,,Clear,160,2013-08-18 21:55:00
5:15 PM,89.1,60.1,38,30.04,10.0,SSE,15.0,19.6,N/A,,Clear,160,2013-08-18 22:15:00
5:35 PM,88.7,59.7,38,30.04,10.0,SSE,13.8,19.6,N/A,,Clear,150,2013-08-18 22:35:00
5:55 PM,88.3,58.3,36,30.03,10.0,SSE,13.8,-,N/A,,Clear,150,2013-08-18 22:55:00
6:15 PM,88.0,59.5,38,30.04,10.0,SSE,12.7,18.4,N/A,,Clear,160,2013-08-18 23:15:00
6:35 PM,87.1,60.3,40,30.04,10.0,SE,11.5,18.4,N/A,,Clear,140,2013-08-18 23:35:00
6:55 PM,86.0,60.4,42,30.03,10.0,SE,13.8,21.9,N/A,,Clear,140,2013-08-18 23:55:00
7:15 PM,85.5,59.2,41,30.03,10.0,SSE,16.1,24.2,N/A,,Clear,160,2013-08-19 00:15:00
7:35 PM,83.8,59.2,43,30.03,10.0,SSE,15.0,18.4,N/A,,Clear,150,2013-08-19 00:35:00
7:55 PM,82.9,59.0,44,30.03,10.0,SSE,12.7,-,N/A,,Clear,150,2013-08-19 00:55:00
8:15 PM,81.3,60.1,48,30.04,10.0,SSE,11.5,-,N/A,,Clear,150,2013-08-19 01:15:00
8:35 PM,79.2,60.1,52,30.05,10.0,SSE,11.5,-,N/A,,Clear,150,2013-08-19 01:35:00
8:55 PM,77.9,60.3,54,30.05,10.0,SSE,11.5,-,N/A,,Clear,150,2013-08-19 01:55:00
9:15 PM,77.5,60.8,56,30.06,10.0,SSE,11.5,-,N/A,,Clear,150,2013-08-19 02:15:00
9:35 PM,77.0,61.0,58,30.06,10.0,SSE,11.5,-,N/A,,Clear,150,2013-08-19 02:35:00
9:55 PM,75.2,61.3,62,30.08,10.0,SSE,9.2,-,N/A,,Clear,150,2013-08-19 02:55:00
10:15 PM,75.0,61.3,62,30.09,7.0,SSE,10.4,-,N/A,,Clear,150,2013-08-19 03:15:00
10:35 PM,74.5,61.7,64,30.09,10.0,SSE,10.4,-,N/A,,Clear,150,2013-08-19 03:35:00
10:55 PM,74.5,61.7,64,30.10,10.0,SE,9.2,-,N/A,,Clear,140,2013-08-19 03:55:00
11:15 PM,72.3,61.0,67,30.11,10.0,SE,8.1,-,N/A,,Clear,140,2013-08-19 04:15:00
11:35 PM,70.9,60.8,70,30.11,10.0,SE,9.2,-,N/A,,Clear,140,2013-08-19 04:35:00
11:55 PM,71.6,60.6,68,30.11,10.0,SSE,12.7,-,N/A,,Clear,150,2013-08-19 04:55:00